SCP
-0 0 -0 0 0 0 0 0 -0 -0 -0 -0 -0 -0 -0 -0 -0 -0 -0 -0 -0 -0 -0 0 0 0 -0 -0 -0 -0 -0 -0 0 0 -0 0 0 0 0 0 -0 -0 0
0 -0 0 0 -0 0 0 -0 -0 -0 -0 -0 -0 -0 -0 -0 -0 -0 -0 -0 -0 -0 0 0 0 0 0 0 0 -0 -0 -0 -0 -0 -0 -0 -0 0 0 0 -0 -0 0
0 -0 -0 0 0 0 0 -0 -0 -0 -0 -0 -0 -0 -0 -0 -0 -0 -0 -0 0 0 0 0 0 0 0 0 0 0 0 0 0 0 0 -0 0 -0 0 0 0 0 0
0 0 -0 -0 -0 -0 -0 -0 -0 -0 0 0 0 0 0 0 0 0 0 0 0 0 0 0 0 0 0 0 0 0 0 0 0 0 0 0 0 -0 0 0 0 0 0
0 -0 -0 -0 -0 -0 -0 -0 0 0 0 0 0 0 0 0 0 0 0 0 0 0 0 0 0 0 0 0 0 0 0 0 0 0 -0 -0 0 0 0 0 0 0 0
0 -0 -0 0 -0 -0 -0 0 0 0 0 0 0 0 0 0 0 0 0 0 0 0 0 0 0 0 0 0 0 0 0 0 0 0 0 0 0 0 0 0 0 0 0
0 -0 -0 0 0 0 0 0 0 0 0 0 0 0 0 0 0 0 0 0 0 0 0 0 0 0 0 0 0 0 0 0 0 0 0 0 0 0 0 0 0 0 0
0 0 0 0 0 0 0 0 0 1 1 0 1 1 0 0 0 0 0 0 0 0 0 0 1 1 1 0 0 0 0 0 0 0 0 0 0 1 0 0 0 0 0
0 0 0 0 0 0 1 1 1 1 1 1 1 1 1 0 0 0 0 0 0 0 0 0 0 1 1 1 1 0 0 0 0 0 0 0 0 1 0 0 0 0 0
0 0 0 0 0 0 0 0 0 0 0 0 0 0 0 0 0 0 0 0 1 1 1 1 1 1 1 1 1 1 0 0 0 0 0 0 0 0 0 0 0 0 0
0 0 0 0 0 0 0 0 0 0 0 0 0 0 0 1 1 1 1 1 1 1 1 1 1 1 1 1 1 1 1 0 0 0 0 0 1 0 0 0 0 0 0
0 0 0 0 0 0 0 0 0 0 0 0 0 0 0 0 1 0 0 0 0 0 0 0 0 1 1 1 0 1 1 0 0 0 0 1 1 0 0 0 0 0 0
0 0 0 -0 0 0 0 0 0 0 0 0 0 0 0 0 0 0 0 0 1 1 0 1 1 1 1 1 1 0 0 0 0 0 0 1 1 1 0 0 0 0 0
0 0 0 0 -0 -0 0 0 0 0 0 0 0 0 0 0 0 0 0 0 0 0 0 0 1 1 1 1 1 1 1 1 1 1 0 2 1 1 1 0 0 0 0
-0 -0 -0 0 0 0 0 0 -0 -0 0 0 0 0 0 0 0 0 0 0 0 0 0 0 0 0 0 0 1 1 1 1 1 1 1 2 1 1 1 0 0 1 1
0 0 0 0 0 0 0 -0 -0 -0 -0 -0 0 0 0 0 0 0 0 0 0 0 0 0 0 0 0 0 0 1 1 1 1 1 1 1 2 1 1 0 0 0 1
0 0 0 0 0 0 0 0 0 -0 0 0 0 0 0 0 0 0 0 0 0 0 0 0 0 0 0 0 0 0 1 1 1 1 1 2 1 1 1 1 0 1 1
0 0 0 0 0 0 0 0 0 0 0 0 0 0 0 0 0 0 0 0 0 0 0 0 0 0 0 0 0 0 0 1 1 1 1 2 2 2 2 1 1 1 1
0 0 0 0 0 0 0 0 0 0 0 0 0 0 0 0 0 0 0 0 0 0 0 0 0 0 0 0 0 0 0 0 0 1 1 1 1 2 1 1 1 1 1
0 0 0 0 0 0 0 0 0 0 0 0 0 0 0 0 0 0 0 0 0 0 0 0 0 0 0 0 0 0 0 0 0 0 1 1 1 1 1 1 2 1 1
0 0 0 0 0 0 0 0 0 0 0 0 0 0 0 0 0 0 0 0 0 0 0 0 0 0 0 0 0 0 0 0 0 0 0 1 1 1 1 1 2 2 2
0 0 0 0 1 1 0 0 0 0 0 0 0 0 0 0 0 0 0 0 0 0 0 0 0 0 0 0 0 0 0 0 0 0 0 1 1 1 1 1 1 2 2
0 0 0 0 0 0 0 0 0 0 0 0 0 0 0 0 0 0 0 0 0 0 0 0 0 0 0 0 0 0 0 0 0 0 0 0 1 1 1 1 1 2 3
0 0 0 0 0 0 0 0 0 0 0 0 0 0 0 0 0 0 0 0 0 0 0 0 0 0 0 0 0 0 0 0 0 0 0 0 1 1 2 1 1 2 2
0 0 0 0 0 0 0 0 0 0 0 0 0 0 0 0 0 0 0 0 0 0 0 0 0 0 0 0 0 0 0 0 0 0 0 0 0 1 1 2 1 1 1
0 0 0 0 0 0 0 0 0 0 0 0 0 0 0 0 0 0 0 0 0 0 0 0 0 0 0 0 0 0 0 0 0 0 0 0 0 0 1 1 1 2 2
Wind_Speed_500mb
11 9 13 15 17 17 18 18 17 17 16 15 15 14 13 13 14 14 15 16 15 15 9 6 5 5 2 1 1 1 2 3 6 9 10 13 16 21 24 26 25 12 19
14 11 13 13 15 15 15 14 16 16 15 14 12 11 10 12 13 14 13 13 12 11 11 9 8 7 7 7 7 8 9 9 8 8 9 6 8 13 17 20 22 16 20
15 13 15 17 16 16 16 16 16 15 12 11 10 10 10 10 11 12 10 8 8 9 11 12 13 13 12 13 13 14 14 15 14 13 9 1 11 12 11 13 16 18 20
16 15 12 12 13 14 15 15 16 15 14 13 12 9 7 8 9 10 10 9 10 12 13 14 16 17 18 18 18 19 19 20 19 18 14 12 13 18 12 11 11 13 16
16 15 11 12 10 10 12 13 13 13 13 12 10 9 9 8 9 10 11 13 14 16 17 19 22 24 24 24 24 24 24 24 24 23 18 19 20 27 23 19 17 15 15
17 12 10 8 8 8 8 9 11 12 12 10 9 8 7 8 9 11 13 14 17 19 20 22 25 27 28 29 30 30 29 29 29 25 25 26 32 34 31 27 23 22 19
17 14 9 9 8 8 10 11 10 9 8 9 9 10 11 12 13 15 17 19 21 23 25 27 28 30 31 33 34 35 35 35 35 28 30 32 29 43 36 32 30 26 26
16 15 9 7 6 4 6 8 11 13 13 13 13 14 15 18 21 23 26 27 28 30 32 34 34 35 37 37 38 38 39 40 39 35 36 36 37 50 38 38 38 37 34
20 16 11 8 7 5 1 2 6 11 14 17 19 20 23 25 27 29 33 35 37 39 41 42 42 43 42 43 45 45 44 45 45 39 40 40 43 52 41 42 42 41 41
21 20 18 18 11 11 7 6 6 8 11 15 20 23 25 26 31 33 34 38 44 46 49 50 51 51 50 50 51 51 51 52 54 46 45 46 53 56 44 45 45 44 43
20 20 19 16 13 12 13 12 13 17 19 20 24 30 28 18 24 29 34 44 47 50 51 54 56 57 56 58 58 57 56 57 48 48 47 49 62 53 48 50 50 48 48
21 20 20 21 22 20 21 23 22 22 21 24 27 29 27 30 34 38 38 45 49 51 51 51 54 54 55 51 45 48 49 47 50 53 53 57 66 55 52 54 54 54 52
19 21 21 27 28 22 23 19 20 18 20 25 31 32 35 36 30 24 27 28 30 36 35 35 38 42 41 44 46 46 47 49 50 50 53 61 70 58 55 59 59 56 55
20 22 22 26 31 32 22 22 21 19 19 19 28 31 31 22 25 27 26 29 30 30 34 34 36 38 41 45 50 55 54 56 56 56 55 59 68 57 52 54 60 61 57
23 24 23 24 23 28 30 33 36 24 21 23 23 34 38 26 33 25 26 27 29 31 33 36 38 40 42 45 48 51 55 56 58 61 57 56 64 60 52 51 51 56 56
23 21 17 15 15 13 15 21 21 23 19 17 19 31 31 30 37 27 28 29 31 31 34 38 41 45 47 48 50 51 54 56 57 58 59 57 61 62 55 52 49 49 50
15 14 11 7 10 12 12 10 9 9 13 14 16 28 35 38 41 46 34 36 35 37 41 42 42 44 46 49 54 53 55 58 61 60 62 62 57 60 61 58 56 51 52
16 12 5 5 8 13 16 19 19 18 18 20 22 23 26 30 32 41 39 43 45 48 48 47 47 49 49 50 53 56 57 57 59 62 61 59 59 58 56 58 58 55 52
20 17 13 12 12 17 25 27 31 33 32 28 30 30 32 34 35 40 47 50 51 55 54 54 54 51 53 54 54 56 58 60 61 62 66 63 62 60 56 56 57 63 59
26 24 21 19 23 27 32 40 35 34 34 35 35 37 38 40 44 46 53 57 57 63 64 65 65 64 61 59 57 59 59 62 63 64 64 68 69 65 61 57 53 55 59
29 27 28 30 34 37 38 34 39 43 43 43 43 44 46 48 52 52 58 64 68 71 75 71 69 66 63 56 58 61 61 61 65 67 69 69 70 70 69 63 58 53 53
30 30 29 38 40 47 42 37 46 51 47 46 49 51 50 51 56 63 70 72 69 70 71 68 66 65 62 52 58 57 64 60 58 62 64 68 71 69 71 68 63 57 55
31 29 29 37 43 46 51 41 35 35 40 46 54 58 63 62 73 79 78 69 63 61 64 60 58 58 63 57 53 55 43 51 44 46 53 57 57 66 68 67 63 58 58
24 29 33 34 35 39 42 30 38 43 44 51 67 67 71 70 68 70 64 61 61 58 60 59 57 57 54 57 52 56 65 64 58 49 49 43 43 50 54 57 56 55 52
12 17 26 27 29 27 29 36 46 55 58 63 66 73 70 70 58 59 60 59 56 53 51 54 58 63 69 68 59 60 58 61 58 61 61 54 50 45 49 48 45 41 36
5 5 15 17 22 27 36 48 60 70 78 79 72 67 64 60 60 57 51 55 55 56 53 53 52 52 54 56 60 70 59 58 55 57 60 59 56 55 47 47 51 50 42
Wind_Direction_500mb
126 137 117 127 136 137 134 134 140 148 151 148 141 135 142 151 156 156 158 164 168 175 175 181 188 172 174 155 173 216 308 341 358 358 353 18 33 40 42 42 50 31 28
130 144 132 114 114 121 124 125 130 144 152 158 160 164 172 173 172 174 173 177 186 209 239 249 245 245 251 263 266 261 271 285 301 319 336 330 2 19 27 35 41 26 24
134 127 146 141 128 120 125 130 129 135 144 152 167 180 188 192 191 190 193 202 222 243 257 266 269 270 271 270 270 270 273 280 284 288 294 280 284 317 346 10 23 25 22
129 128 133 138 135 132 130 137 139 140 144 151 157 169 182 189 197 209 222 238 257 266 268 270 276 278 278 276 272 272 273 275 277 279 282 280 262 280 302 317 337 355 4
115 121 131 136 148 156 148 144 150 151 147 147 150 157 163 176 196 214 236 253 265 273 278 281 283 284 283 280 277 275 273 273 275 278 269 263 266 269 279 290 301 316 335
133 119 128 120 137 167 185 174 163 163 167 171 180 186 195 205 218 233 247 258 267 271 275 279 281 281 280 279 279 277 274 272 271 273 271 264 265 253 269 278 283 293 302
132 113 145 139 143 163 181 197 202 199 198 202 212 228 238 240 246 251 255 260 265 268 271 274 275 277 276 275 275 274 273 271 270 263 260 260 256 267 264 269 273 277 283
128 113 112 112 111 133 171 196 212 223 229 238 244 248 256 262 260 260 260 259 260 263 266 268 270 272 274 272 270 271 272 271 270 266 260 254 255 256 262 263 266 269 271
105 105 117 105 97 95 110 227 240 249 249 250 254 258 258 259 265 268 270 271 271 266 266 267 267 268 267 270 272 270 269 268 267 259 258 259 256 261 259 261 261 263 264
103 93 81 88 85 77 2 334 304 280 274 268 264 263 269 276 275 275 277 282 275 277 276 274 272 270 269 268 266 266 267 267 264 260 259 257 254 258 263 261 260 260 261
92 86 86 77 61 46 25 3 335 308 300 292 287 283 286 292 284 286 280 282 286 284 281 279 277 276 275 273 270 269 268 264 260 260 258 255 256 262 261 262 260 259 258
100 90 78 65 51 39 25 10 356 342 324 310 303 302 293 289 289 290 295 290 291 287 287 289 285 281 277 278 276 283 278 263 259 257 256 254 256 261 261 260 258 257 256
103 90 73 56 57 60 41 36 13 346 338 330 321 314 310 309 297 306 303 301 296 298 300 287 286 289 279 272 270 271 271 266 264 260 258 258 262 262 260 259 258 258 257
117 101 89 63 55 51 52 40 27 21 19 12 354 354 345 339 324 315 311 306 303 296 291 297 286 281 276 274 270 270 267 265 264 262 261 259 263 263 261 262 260 254 255
116 115 105 86 64 47 46 34 31 33 14 7 8 2 5 4 354 344 334 327 310 301 299 294 291 288 284 282 278 273 269 265 262 261 260 259 262 262 257 257 260 249 250
134 128 109 95 61 56 46 36 34 29 17 7 355 349 350 352 346 348 340 331 326 317 310 305 296 290 288 281 276 273 269 266 263 263 260 261 263 266 256 256 252 249 253
152 144 103 80 30 17 359 353 335 348 329 332 330 336 333 332 329 331 327 326 322 318 318 309 303 298 292 284 280 279 270 268 265 263 260 256 257 265 263 255 252 248 248
191 197 175 221 270 327 321 320 311 306 307 305 303 304 305 315 314 317 315 314 308 314 311 305 302 296 292 286 279 273 270 269 261 260 260 258 259 252 258 261 254 250 253
212 221 240 266 275 285 303 307 306 303 304 298 296 298 295 299 302 302 306 305 302 303 303 301 299 295 291 287 283 278 272 266 265 259 257 256 255 254 253 256 260 254 252
229 239 255 271 282 289 294 298 299 297 298 297 295 296 292 296 297 296 299 299 297 297 295 292 287 289 285 284 281 276 270 264 259 257 255 252 251 251 252 250 250 260 256
238 253 267 274 280 284 287 288 291 293 293 290 292 291 292 294 296 295 298 297 294 292 288 285 287 286 282 279 279 277 275 272 265 258 253 250 249 248 248 248 249 247 250
246 259 268 272 276 278 282 285 287 287 285 284 287 292 294 296 295 296 295 294 291 289 285 284 282 281 278 273 269 273 277 273 263 259 253 250 248 246 247 246 247 247 243
254 266 270 270 276 278 280 294 298 296 296 294 292 289 292 291 294 295 296 294 290 288 287 283 280 277 277 273 264 258 269 263 273 263 252 248 247 245 245 246 245 246 242
257 253 269 276 279 282 289 293 297 303 300 293 297 296 291 295 293 295 295 293 291 286 279 279 277 266 267 267 265 259 255 259 267 274 256 254 246 248 245 243 244 242 239
243 256 274 279 285 290 298 301 303 301 299 300 299 297 297 301 297 294 294 293 290 287 283 278 279 273 263 263 263 259 258 255 251 252 258 254 251 243 243 242 232 234 234
179 261 274 287 293 301 303 303 305 306 306 305 305 305 305 298 298 298 296 289 294 293 293 288 281 278 279 267 260 254 252 252 250 246 251 250 251 249 251 234 238 235 233
Wind_Speed_850mb
11 9 13 15 17 17 18 18 17 17 16 15 15 14 13 13 14 14 15 16 15 15 9 6 5 5 2 1 1 1 2 3 6 9 10 13 16 21 24 26 25 12 19
14 11 13 13 15 15 15 14 16 16 15 14 12 11 10 12 13 14 13 13 12 11 11 9 8 7 7 7 7 8 9 9 8 8 9 6 8 13 17 20 22 16 20
15 13 15 17 16 16 16 16 16 15 12 11 10 10 10 10 11 12 10 8 8 9 11 12 13 13 12 13 13 14 14 15 14 13 9 1 11 12 11 13 16 18 20
16 15 12 12 13 14 15 15 16 15 14 13 12 9 7 8 9 10 10 9 10 12 13 14 16 17 18 18 18 19 19 20 19 18 14 12 13 18 12 11 11 13 16
16 15 11 12 10 10 12 13 13 13 13 12 10 9 9 8 9 10 11 13 14 16 17 19 22 24 24 24 24 24 24 24 24 23 18 19 20 27 23 19 17 15 15
17 12 10 8 8 8 8 9 11 12 12 10 9 8 7 8 9 11 13 14 17 19 20 22 25 27 28 29 30 30 29 29 29 25 25 26 32 34 31 27 23 22 19
17 14 9 9 8 8 10 11 10 9 8 9 9 10 11 12 13 15 17 19 21 23 25 27 28 30 31 33 34 35 35 35 35 28 30 32 29 43 36 32 30 26 26
16 15 9 7 6 4 6 8 11 13 13 13 13 14 15 18 21 23 26 27 28 30 32 34 34 35 37 37 38 38 39 40 39 35 36 36 37 50 38 38 38 37 34
20 16 11 8 7 5 1 2 6 11 14 17 19 20 23 25 27 29 33 35 37 39 41 42 42 43 42 43 45 45 44 45 45 39 40 40 43 52 41 42 42 41 41
21 20 18 18 11 11 7 6 6 8 11 15 20 23 25 26 31 33 34 38 44 46 49 50 51 51 50 50 51 51 51 52 54 46 45 46 53 56 44 45 45 44 43
20 20 19 16 13 12 13 12 13 17 19 20 24 30 28 18 24 29 34 44 47 50 51 54 56 57 56 58 58 57 56 57 48 48 47 49 62 53 48 50 50 48 48
21 20 20 21 22 20 21 23 22 22 21 24 27 29 27 30 34 38 38 45 49 51 51 51 54 54 55 51 45 48 49 47 50 53 53 57 66 55 52 54 54 54 52
19 21 21 27 28 22 23 19 20 18 20 25 31 32 35 36 30 24 27 28 30 36 35 35 38 42 41 44 46 46 47 49 50 50 53 61 70 58 55 59 59 56 55
20 22 22 26 31 32 22 22 21 19 19 19 28 31 31 22 25 27 26 29 30 30 34 34 36 38 41 45 50 55 54 56 56 56 55 59 68 57 52 54 60 61 57
23 24 23 24 23 28 30 33 36 24 21 23 23 34 38 26 33 25 26 27 29 31 33 36 38 40 42 45 48 51 55 56 58 61 57 56 64 60 52 51 51 56 56
23 21 17 15 15 13 15 21 21 23 19 17 19 31 31 30 37 27 28 29 31 31 34 38 41 45 47 48 50 51 54 56 57 58 59 57 61 62 55 52 49 49 50
15 14 11 7 10 12 12 10 9 9 13 14 16 28 35 38 41 46 34 36 35 37 41 42 42 44 46 49 54 53 55 58 61 60 62 62 57 60 61 58 56 51 52
16 12 5 5 8 13 16 19 19 18 18 20 22 23 26 30 32 41 39 43 45 48 48 47 47 49 49 50 53 56 57 57 59 62 61 59 59 58 56 58 58 55 52
20 17 13 12 12 17 25 27 31 33 32 28 30 30 32 34 35 40 47 50 51 55 54 54 54 51 53 54 54 56 58 60 61 62 66 63 62 60 56 56 57 63 59
26 24 21 19 23 27 32 40 35 34 34 35 35 37 38 40 44 46 53 57 57 63 64 65 65 64 61 59 57 59 59 62 63 64 64 68 69 65 61 57 53 55 59
29 27 28 30 34 37 38 34 39 43 43 43 43 44 46 48 52 52 58 64 68 71 75 71 69 66 63 56 58 61 61 61 65 67 69 69 70 70 69 63 58 53 53
30 30 29 38 40 47 42 37 46 51 47 46 49 51 50 51 56 63 70 72 69 70 71 68 66 65 62 52 58 57 64 60 58 62 64 68 71 69 71 68 63 57 55
31 29 29 37 43 46 51 41 35 35 40 46 54 58 63 62 73 79 78 69 63 61 64 60 58 58 63 57 53 55 43 51 44 46 53 57 57 66 68 67 63 58 58
24 29 33 34 35 39 42 30 38 43 44 51 67 67 71 70 68 70 64 61 61 58 60 59 57 57 54 57 52 56 65 64 58 49 49 43 43 50 54 57 56 55 52
12 17 26 27 29 27 29 36 46 55 58 63 66 73 70 70 58 59 60 59 56 53 51 54 58 63 69 68 59 60 58 61 58 61 61 54 50 45 49 48 45 41 36
5 5 15 17 22 27 36 48 60 70 78 79 72 67 64 60 60 57 51 55 55 56 53 53 52 52 54 56 60 70 59 58 55 57 60 59 56 55 47 47 51 50 42
Wind_Direction_850mb
126 137 117 127 136 137 134 134 140 148 151 148 141 135 142 151 156 156 158 164 168 175 175 181 188 172 174 155 173 216 308 341 358 358 353 18 33 40 42 42 50 31 28
130 144 132 114 114 121 124 125 130 144 152 158 160 164 172 173 172 174 173 177 186 209 239 249 245 245 251 263 266 261 271 285 301 319 336 330 2 19 27 35 41 26 24
134 127 146 141 128 120 125 130 129 135 144 152 167 180 188 192 191 190 193 202 222 243 257 266 269 270 271 270 270 270 273 280 284 288 294 280 284 317 346 10 23 25 22
129 128 133 138 135 132 130 137 139 140 144 151 157 169 182 189 197 209 222 238 257 266 268 270 276 278 278 276 272 272 273 275 277 279 282 280 262 280 302 317 337 355 4
115 121 131 136 148 156 148 144 150 151 147 147 150 157 163 176 196 214 236 253 265 273 278 281 283 284 283 280 277 275 273 273 275 278 269 263 266 269 279 290 301 316 335
133 119 128 120 137 167 185 174 163 163 167 171 180 186 195 205 218 233 247 258 267 271 275 279 281 281 280 279 279 277 274 272 271 273 271 264 265 253 269 278 283 293 302
132 113 145 139 143 163 181 197 202 199 198 202 212 228 238 240 246 251 255 260 265 268 271 274 275 277 276 275 275 274 273 271 270 263 260 260 256 267 264 269 273 277 283
128 113 112 112 111 133 171 196 212 223 229 238 244 248 256 262 260 260 260 259 260 263 266 268 270 272 274 272 270 271 272 271 270 266 260 254 255 256 262 263 266 269 271
105 105 117 105 97 95 110 227 240 249 249 250 254 258 258 259 265 268 270 271 271 266 266 267 267 268 267 270 272 270 269 268 267 259 258 259 256 261 259 261 261 263 264
103 93 81 88 85 77 2 334 304 280 274 268 264 263 269 276 275 275 277 282 275 277 276 274 272 270 269 268 266 266 267 267 264 260 259 257 254 258 263 261 260 260 261
92 86 86 77 61 46 25 3 335 308 300 292 287 283 286 292 284 286 280 282 286 284 281 279 277 276 275 273 270 269 268 264 260 260 258 255 256 262 261 262 260 259 258
100 90 78 65 51 39 25 10 356 342 324 310 303 302 293 289 289 290 295 290 291 287 287 289 285 281 277 278 276 283 278 263 259 257 256 254 256 261 261 260 258 257 256
103 90 73 56 57 60 41 36 13 346 338 330 321 314 310 309 297 306 303 301 296 298 300 287 286 289 279 272 270 271 271 266 264 260 258 258 262 262 260 259 258 258 257
117 101 89 63 55 51 52 40 27 21 19 12 354 354 345 339 324 315 311 306 303 296 291 297 286 281 276 274 270 270 267 265 264 262 261 259 263 263 261 262 260 254 255
116 115 105 86 64 47 46 34 31 33 14 7 8 2 5 4 354 344 334 327 310 301 299 294 291 288 284 282 278 273 269 265 262 261 260 259 262 262 257 257 260 249 250
134 128 109 95 61 56 46 36 34 29 17 7 355 349 350 352 346 348 340 331 326 317 310 305 296 290 288 281 276 273 269 266 263 263 260 261 263 266 256 256 252 249 253
152 144 103 80 30 17 359 353 335 348 329 332 330 336 333 332 329 331 327 326 322 318 318 309 303 298 292 284 280 279 270 268 265 263 260 256 257 265 263 255 252 248 248
191 197 175 221 270 327 321 320 311 306 307 305 303 304 305 315 314 317 315 314 308 314 311 305 302 296 292 286 279 273 270 269 261 260 260 258 259 252 258 261 254 250 253
212 221 240 266 275 285 303 307 306 303 304 298 296 298 295 299 302 302 306 305 302 303 303 301 299 295 291 287 283 278 272 266 265 259 257 256 255 254 253 256 260 254 252
229 239 255 271 282 289 294 298 299 297 298 297 295 296 292 296 297 296 299 299 297 297 295 292 287 289 285 284 281 276 270 264 259 257 255 252 251 251 252 250 250 260 256
238 253 267 274 280 284 287 288 291 293 293 290 292 291 292 294 296 295 298 297 294 292 288 285 287 286 282 279 279 277 275 272 265 258 253 250 249 248 248 248 249 247 250
246 259 268 272 276 278 282 285 287 287 285 284 287 292 294 296 295 296 295 294 291 289 285 284 282 281 278 273 269 273 277 273 263 259 253 250 248 246 247 246 247 247 243
254 266 270 270 276 278 280 294 298 296 296 294 292 289 292 291 294 295 296 294 290 288 287 283 280 277 277 273 264 258 269 263 273 263 252 248 247 245 245 246 245 246 242
257 253 269 276 279 282 289 293 297 303 300 293 297 296 291 295 293 295 295 293 291 286 279 279 277 266 267 267 265 259 255 259 267 274 256 254 246 248 245 243 244 242 239
243 256 274 279 285 290 298 301 303 301 299 300 299 297 297 301 297 294 294 293 290 287 283 278 279 273 263 263 263 259 258 255 251 252 258 254 251 243 243 242 232 234 234
179 261 274 287 293 301 303 303 305 306 306 305 305 305 305 298 298 298 296 289 294 293 293 288 281 278 279 267 260 254 252 252 250 246 251 250 251 249 251 234 238 235 233